Location: Poughquag
(41.6090°N, 73.6820°W)
Time: 19:53:50
(UTC-05:00)

A-11 Canister half - Pass Details

Date: 09 December 2023
Orbit: 1526 x 1682 km, 47.3° (Epoch: 23 February)

Event Time Altitude Azimuth Distance (km) Brightness Sun altitude
Rises 21:43:04 0° 287° (WNW) 4,935 12.1 -58.0°
Reaches altitude 10° 21:46:17 10° 290° (WNW) 3,942 11.5 -58.6°
Enters shadow 21:48:55 21° 294° (WNW) 3,161 10.8 -59.0°
